Starlink 5154

operational
NORAD ID: 54176 Int'l Des: 2022-141 Owner: SPXS Country: US Constellation: starlink
LEOCIRCULAR

Über Starlink 5154

Beschreibung wird geladen...

Live-Position

3D-Globus wird geladen...

Nächste Überflüge

Höhenverlauf

Altitude vs Time

uPlot chart will show altitude changes over time

Zweizeiliger Elementsatz

1 54176U 22141V 25304.01798817 .00000068 00000-0 22366-4 0 9995
2 54176 53.2177 226.0940 0001408 90.9247 269.1907 15.08838559166286
Epoch: 31. Okt. 2025 • Age: 19 hours

Aktueller Status

Höhe 559.3 km
Geschwindigkeit 7.58 km/s
Subsatellitenpunkt -53.26°S, 170.45°E
Startdatum 28. Okt. 2022
Alter 3 years
Typ internet

Technische Details

Klassifizierung Payload
Masse 305.00 kg
Trockenmasse 290.00 kg
Gesamtmasse 305.00 kg
Länge 0.20 m
Durchmesser 2.80 m
Spannweite 9.00 m
Form Box + pan
Hersteller SPXS
Bus-Typ Starlink
Phasenstatus In Orbit
Besitzer/Staat SPXS/US

Große Konstellationen

Loading constellations...